Location: Akho
(42.3047°N, 44.1844°E)
Time: 14:27:54
(UTC+00:00)

SL-16 R/B - Pass Details

Date: 07 June 2020
Orbit: 986 x 1006 km, 99.5° (Epoch: 13 July)

Event Time Altitude Azimuth Distance (km) Brightness Sun altitude
Exits shadow 00:10:23 15° 236° (SW) 2,417 3.9 -11.8°
Maximum altitude 00:13:14 20° 268° (W) 2,131 3.9 -11.4°
Drops below altitude 10° 00:17:34 10° 313° (NW) 2,756 4.9 -10.8°
Sets 00:20:50 0° 331° (NNW) 3,713 5.7 -10.4°
